Вернуться в каталог

FENGYUN 2F DEB

АктивенMEO
NORAD 43396·DEBRIS·🇨🇳 China

Запущен Jan 13, 2012 с Xichang Satellite Launch Center

Loading…

Ближайшие Пролёты (ближайшие 24 часа)

TLE

УстаревающийSource: Space-Track

Эпоха: Sep 1, 2026, 21:25 UTC

1 43396U 12002D   26244.89286726 -.00000387  00000-0  00000+0 0  9994
2 43396   9.2827  56.5641 0251176 307.1997  50.6453  1.00244886 43531

Отслеживайте FENGYUN 2F DEB в реальном времени с AllMySat

Download on the App Store